Skip Page Navigation
NASA JPL Caltech
NASA Logo - Jet Propulsion Laboratory + View the NASA Portal
+ Near-Earth Object (NEO) Program
Search JPL
JPL Home Earth Solar System Stars & Galaxies Technology
JPL Solar System Dynamics
BODIES ORBITS EPHEMERIDES TOOLS PHYSICAL DATA DISCOVERY FAQ SITE MAP
JPL Small-Body Database Browser
Search: [ help ]  
131762 Csonka (2002 AD11)
Classification: Main-belt Asteroid          SPK-ID: 2131762
Ephemeris | Orbit Diagram | Orbital Elements | Physical Parameters | Discovery Circumstances ]

[ show orbit diagram ]
Orbital Elements at Epoch 2456400.5 (2013-Apr-18.0) TDB
Reference: MPO217348 (heliocentric ecliptic J2000)
 Element Value Uncertainty (1-sigma)   Units 
e 0.2178373 n/a  
a 2.5390665 n/a AU
q 1.9859631 n/a AU
i 4.56085 n/a deg
node 165.70222 n/a deg
peri 284.56337 n/a deg
M 295.09269 n/a deg
tp 2456666.9407553
(2014-Jan-09.44075530)
n/a JED
period 1477.7791885
4.05
n/a
n/a
d
yr
n 0.24360879 n/a deg/d
Q 3.0921699 n/a AU
  Orbit Determination Parameters
   # obs. used (total)      122  
   first obs. used      1997-??-??  
   last obs. used      2011-06-02  
   # oppositions      8  
   planetary ephem.      DE403  
   condition code      1  
   fit RMS      0.43  
   data source      MPC:mpu  
   producer      MPCLINUX  

Additional Information
 T_jup = 3.409 

Ephemeris | Orbit Diagram | Orbital Elements | Physical Parameters | Discovery Circumstances ]

Physical Parameter Table
Parameter Symbol Value Units Sigma Reference Notes
absolute magnitude H 16.6 mag n/a MPO217348  

131762 Csonka           Discovered 2002 Jan. 11 by K. Sárneczky and Z. Heiner at Piszkéstet{o´´}.
János Csonka (1852-1939) is one of the greatest figures of the Hungarian engineering industry. He invented the first Hungarian gas engine, several other engines and vehicles. He was the coinventor of the carburetor with Donát Bánki. This minor planet was discovered on the 150th anniversary of his birth.
NOTE: some special characters may not display properly (any characters within {} are an attempt to place the proper accent above a character)
Reference: 20090209/MPCPages.arcLast Updated: 2009-02-11
Ephemeris | Orbit Diagram | Orbital Elements | Physical Parameters | Discovery Circumstances ]
ABOUT SSD CREDITS/AWARDS PRIVACY/COPYRIGHT GLOSSARY LINKS
FirstGov 2013-May-23 00:34 UT
(server date/time)  
NASA Home Page
Site Manager:   Donald K. Yeomans
Webmaster  Alan B. Chamberlin